SV2BZQ-1 Makrigialos GR current weather conditions

sailwx.info

Wind at 6 knots gusting 15

Air temperature 9.4° C
Dewpoint 9.4° C

Last reported at 2019-Dec-11 04:14 UTC.
Time now 2019-Dec-11 20:00 UTC

Location: N 40°25' E 022°37'.
View on Google Maps.

See reports from other nearby stations

  
Tides and Currents Weather Stations Pressure Air Temp Water Temp Dewpoint Dewpoint Depression Visibility Wind Speed Wind Dir Waves Ship Positions
date/time (UTC)wind fromknots sea level pressurealtimeterstation pressurevisibilityair tempwater tempwave heightnotes
2019-Dec-11 04:14 9.4
2019-Dec-11 04:08 357 6 gusting 12 9.4
2019-Dec-11 04:04 343 6 gusting 10 9.4
2019-Dec-11 03:58 328 6 gusting 10 9.4
2019-Dec-11 03:54 347 5 gusting 10 9.4
2019-Dec-11 03:50 313 5 gusting 12 9.4
2019-Dec-11 03:43 296 6 gusting 12 9.4
2019-Dec-11 03:39 323 6 gusting 11 9.4
2019-Dec-11 03:33 9.4
2019-Dec-11 03:29 325 7 gusting 12 9.4
2019-Dec-11 03:23 325 6 gusting 12 9.4
2019-Dec-11 03:19 349 6 gusting 12 9.4
2019-Dec-11 03:13 335 6 gusting 11 9.4
2019-Dec-11 03:08 309 6 gusting 13 9.4
2019-Dec-11 03:02 330 6 gusting 13 9.4
2019-Dec-11 02:58 337 6 gusting 13 9.4
2019-Dec-11 02:54 350 6 gusting 14 9.4
2019-Dec-11 02:50 346 7 gusting 15 9.4
2019-Dec-11 02:43 313 7 gusting 17 9.4
2019-Dec-11 02:39 330 7 gusting 17 9.4
2019-Dec-11 02:33 353 7 gusting 13 9.4
2019-Dec-11 02:29 316 7 gusting 14 9.4
2019-Dec-11 02:23 308 7 gusting 14 9.4
2019-Dec-11 02:17 9.4
2019-Dec-11 02:13 013 8 gusting 14 9.4
2019-Dec-11 02:09 337 8 gusting 14 9.4
2019-Dec-11 02:03 333 7 gusting 16 9.4
2019-Dec-11 01:59 344 6 gusting 16 9.4
2019-Dec-11 01:54 016 6 gusting 11 9.4
2019-Dec-11 01:48 291 6 gusting 12 9.4
2019-Dec-11 01:44 318 6 gusting 12 9.4
2019-Dec-11 01:38 337 6 gusting 12 9.4
2019-Dec-11 01:34 320 6 gusting 12 9.4
2019-Dec-11 01:30 305 6 gusting 14 9.4
2019-Dec-11 01:24 359 6 gusting 14 9.4
2019-Dec-11 01:19 329 7 gusting 13 9.4
2019-Dec-11 01:13 326 7 gusting 12 9.4
2019-Dec-11 01:09 298 6 gusting 12 9.4
2019-Dec-11 00:59 344 8 gusting 15 9.4
2019-Dec-11 00:53 343 7 gusting 15 9.4
2019-Dec-11 00:49 319 7 gusting 13 9.4
2019-Dec-11 00:43 333 7 gusting 16 9.4
2019-Dec-11 00:38 001 7 gusting 16 9.4
2019-Dec-11 00:34 346 6 gusting 15 9.4
2019-Dec-11 00:28 013 6 gusting 15 9.4
2019-Dec-11 00:24 322 6 gusting 15 9.4
2019-Dec-11 00:18 354 7 gusting 15 9.4
2019-Dec-11 00:14 9.4
2019-Dec-11 00:08 354 6 gusting 12 9.4
2019-Dec-11 00:04 299 7 gusting 12 9.4
2019-Dec-10 23:58 354 7 gusting 13 9.4
2019-Dec-10 23:54 9.4
2019-Dec-10 23:49 339 6 gusting 11 9.4
2019-Dec-10 23:43 9.4
2019-Dec-10 23:39 347 6 gusting 12 9.4
2019-Dec-10 23:35 315 6 gusting 12 9.4
2019-Dec-10 23:29 028 6 gusting 11 9.4
2019-Dec-10 23:23 354 6 gusting 11 9.4
2019-Dec-10 23:19 329 6 gusting 12 9.4
2019-Dec-10 23:14 008 5 gusting 12 9.4
2019-Dec-10 23:08 332 5 gusting 10 9.4
2019-Dec-10 23:04 306 6 gusting 10 9.4
2019-Dec-10 22:58 336 6 gusting 13 9.4
2019-Dec-10 22:52 340 6 gusting 13 9.4
2019-Dec-10 22:48 344 6 gusting 13 9.4
2019-Dec-10 22:42 311 5 gusting 12 9.4
2019-Dec-10 22:38 332 5 gusting 12 9.4
2019-Dec-10 22:34 333 5 gusting 11 9.4
2019-Dec-10 22:29 9.4
2019-Dec-10 22:23 323 6 gusting 14 9.4
2019-Dec-10 22:19 9.4
2019-Dec-10 22:13 315 7 gusting 14 9.4
2019-Dec-10 22:07 333 6 gusting 14 9.4
2019-Dec-10 22:05 343 6 gusting 12 9.4
2019-Dec-10 21:57 027 6 gusting 15 9.4
2019-Dec-10 21:55 315 6 gusting 15 9.4
2019-Dec-10 21:48 335 6 gusting 13 9.4
2019-Dec-10 21:44 008 6 gusting 13 9.4
2019-Dec-10 21:38 325 6 gusting 10 9.4
2019-Dec-10 21:34 326 6 gusting 10 9.4
2019-Dec-10 21:30 330 6 gusting 10 9.4
2019-Dec-10 21:24 339 5 gusting 10 9.4
2019-Dec-10 21:19 308 5 gusting 10 10.0
2019-Dec-10 21:13 008 6 gusting 10 9.4
2019-Dec-10 21:09 316 6 gusting 12 9.4
2019-Dec-10 21:01 011 6 gusting 9 9.4
2019-Dec-10 20:59 354 5 gusting 9 9.4
2019-Dec-10 20:53 346 5 gusting 9 9.4
2019-Dec-10 20:49 9.4
2019-Dec-10 20:44 313 5 gusting 13 10.0
2019-Dec-10 20:38 359 4 gusting 10 9.4
2019-Dec-10 20:34 354 5 gusting 12 9.4
2019-Dec-10 20:28 349 6 gusting 12 9.4
2019-Dec-10 20:24 333 6 gusting 12 9.4
2019-Dec-10 20:18 352 6 gusting 12 9.4
2019-Dec-10 20:14 9.4
2019-Dec-10 20:08 302 6 gusting 13 9.4
2019-Dec-10 20:03 288 7 gusting 13 9.4
2019-Dec-10 19:59 337 8 gusting 12 9.4
2019-Dec-10 19:53 352 7 gusting 13 9.4
2019-Dec-10 19:49 017 7 gusting 13 9.4
2019-Dec-10 19:43 315 7 gusting 13 9.4
2019-Dec-10 19:39 326 7 gusting 14 9.4
2019-Dec-10 19:35 322 7 gusting 14 9.4
2019-Dec-10 19:29 333 7 gusting 14 9.4
2019-Dec-10 19:25 315 7 gusting 16 9.4
2019-Dec-10 19:19 352 7 gusting 16 9.4
2019-Dec-10 19:14 349 7 gusting 13 10.0
2019-Dec-10 19:08 10.0
2019-Dec-10 19:04 10.0
2019-Dec-10 18:58 318 6 gusting 13 10.0
2019-Dec-10 18:54 354 6 gusting 12 10.0
2019-Dec-10 18:50 330 6 gusting 12 10.0
2019-Dec-10 18:44 302 6 gusting 11 10.0
2019-Dec-10 18:40 354 6 gusting 11 9.4
2019-Dec-10 18:33 318 6 gusting 11 9.4
2019-Dec-10 18:29 352 6 gusting 12 9.4
2019-Dec-10 18:23 025 6 gusting 13 9.4
2019-Dec-10 18:19 013 7 gusting 14 9.4
2019-Dec-10 18:13 326 7 gusting 14 9.4
2019-Dec-10 18:09 329 6 gusting 12 9.4
2019-Dec-10 18:04 340 6 gusting 12 9.4
2019-Dec-10 17:58 311 6 gusting 12 9.4
2019-Dec-10 17:54 357 6 gusting 13 9.4
2019-Dec-10 17:48 325 6 gusting 13 9.4
2019-Dec-10 17:44 318 6 gusting 14 9.4
2019-Dec-10 17:38 332 6 gusting 14 9.4
2019-Dec-10 17:34 352 6 gusting 12 9.4
2019-Dec-10 17:28 349 6 gusting 12 9.4
2019-Dec-10 17:24 319 6 gusting 10 9.4
2019-Dec-10 17:18 356 5 gusting 12 9.4
2019-Dec-10 17:14 298 6 gusting 12 9.4
2019-Dec-10 17:10 349 6 gusting 10 9.4
2019-Dec-10 17:04 333 6 gusting 11 9.4
2019-Dec-10 16:59 9.4
2019-Dec-10 16:53 315 6 gusting 11 9.4
2019-Dec-10 16:49 339 6 gusting 10 9.4
2019-Dec-10 16:43 304 6 gusting 10 9.4
2019-Dec-10 16:39 333 6 gusting 11 9.4
2019-Dec-10 16:33 335 5 gusting 11 9.4
2019-Dec-10 16:29 333 5 gusting 8 9.4
2019-Dec-10 16:25 315 5 gusting 10 9.4
2019-Dec-10 16:18 350 6 gusting 10 9.4
2019-Dec-10 16:14 10.0
2019-Dec-10 16:09 330 6 gusting 6 10.0
2019-Dec-10 16:03 330 6 gusting 11 10.0
2019-Dec-10 15:59 356 6 gusting 11 10.0
2019-Dec-10 15:51 328 6 gusting 8 10.0
2019-Dec-10 15:49 323 6 gusting 8 10.0
2019-Dec-10 15:43 10.0
2019-Dec-10 15:38
2019-Dec-10 15:33 10.0
2019-Dec-10 15:29 10.0
2019-Dec-10 15:23 325 6 gusting 4 10.0
2019-Dec-10 15:19 325 6 gusting 14 10.0
2019-Dec-10 15:14 325 6 gusting 14 10.0
2019-Dec-10 15:06 326 5 gusting 9 10.0
2019-Dec-10 15:04 343 5 gusting 9 10.0
2019-Dec-10 14:59 343 5 gusting 10 10.0
2019-Dec-10 14:53 332 6 gusting 9 10.0
2019-Dec-10 14:46 342 5 gusting 11 10.0
2019-Dec-10 14:44 328 5 gusting 11 10.0
2019-Dec-10 14:38 328 6 gusting 11 10.0
2019-Dec-10 14:34 344 6 gusting 10 10.0
2019-Dec-10 14:29 10.0
2019-Dec-10 14:23 353 5 gusting 9 10.0
2019-Dec-10 14:19 347 5 gusting 8 10.0
2019-Dec-10 14:14 10.0
2019-Dec-10 14:08 313 6 gusting 10 10.0
2019-Dec-10 14:04 319 6 gusting 11 10.0
2019-Dec-10 13:58 325 6 gusting 11 10.0
2019-Dec-10 13:54 329 6 gusting 11 10.0
2019-Dec-10 13:48 326 6 gusting 11 10.6
2019-Dec-10 13:44 353 6 gusting 11 10.6
2019-Dec-10 13:38 333 5 gusting 12 10.6
2019-Dec-10 13:33 001 6 gusting 12 10.6
2019-Dec-10 13:29 352 6 gusting 12 10.6
2019-Dec-10 13:23 322 5 gusting 11 10.6
2019-Dec-10 13:19 349 6 gusting 9 10.6
2019-Dec-10 13:13 342 6 gusting 9 10.6
2019-Dec-10 13:09 340 5 gusting 9 10.6
2019-Dec-10 13:05 350 5 gusting 8 10.6
2019-Dec-10 12:58 329 5 gusting 10 10.6
2019-Dec-10 12:54 336 5 gusting 10 11.1
2019-Dec-10 12:48 339 4 gusting 10 11.1
2019-Dec-10 12:44 11.1
2019-Dec-10 12:40 11.1
2019-Dec-10 12:33 342 5 gusting 9 11.1
2019-Dec-10 12:29 335 4 gusting 9 11.1
2019-Dec-10 12:23 337 5 gusting 9 11.7
2019-Dec-10 12:19 299 6 gusting 10 11.7
2019-Dec-10 12:13 11.7
2019-Dec-10 12:09 342 5 gusting 10 11.7
2019-Dec-10 12:04 309 5 gusting 10 11.7
2019-Dec-10 11:58 330 5 gusting 9 11.7
2019-Dec-10 11:54 357 5 gusting 9 11.7
2019-Dec-10 11:48 343 4 gusting 6 11.7
2019-Dec-10 11:44 347 5 gusting 10 11.7
2019-Dec-10 11:40 346 4 gusting 10 11.7
2019-Dec-10 11:33 352 4 gusting 10 11.7
2019-Dec-10 11:29 316 5 gusting 7 11.7
2019-Dec-10 11:23 315 5 gusting 8 11.7
2019-Dec-10 11:19 357 5 gusting 9 11.7
2019-Dec-10 11:14 308 5 gusting 9 11.7
2019-Dec-10 11:08 313 4 gusting 9 11.7
2019-Dec-10 11:04 320 3 gusting 8 11.7
2019-Dec-10 10:57 12.2
2019-Dec-10 10:53 340 4 gusting 7 12.2
2019-Dec-10 10:49 292 3 gusting 8 12.2
2019-Dec-10 10:43 352 4 gusting 10 12.2
2019-Dec-10 10:38 359 5 gusting 10 12.2
2019-Dec-10 10:34 320 4 gusting 10 11.7
2019-Dec-10 10:28 313 4 gusting 9 11.7
2019-Dec-10 10:23 357 5 gusting 9 11.7
2019-Dec-10 10:19 323 5 gusting 6 11.7
2019-Dec-10 10:13 342 3 gusting 9 11.7
2019-Dec-10 10:09 350 3 gusting 9 11.7
2019-Dec-10 10:05 339 3 gusting 9 11.1
2019-Dec-10 09:58 328 4 gusting 9 11.1
2019-Dec-10 09:54 349 4 gusting 8 11.1
2019-Dec-10 09:45 340 1 gusting 5 11.1
2019-Dec-10 09:44 339 1 gusting 5 11.1
2019-Dec-10 09:39 316 2 gusting 6 11.1
2019-Dec-10 09:33 319 3 gusting 8 11.1
2019-Dec-10 09:29 329 3 gusting 6 11.1
2019-Dec-10 09:24 330 5 gusting 7 11.1
2019-Dec-10 09:20 330 5 gusting 8 11.1
2019-Dec-10 09:13 315 5 gusting 8 11.1
2019-Dec-10 09:09 308 5 gusting 6 11.1
2019-Dec-10 09:04 308 5 gusting 6 11.1
2019-Dec-10 08:59 308 5 gusting 6 11.1
2019-Dec-10 08:54
2019-Dec-10 08:48
2019-Dec-10 08:43 322 5 gusting 6
2019-Dec-10 08:38
2019-Dec-10 08:34
2019-Dec-10 08:28
2019-Dec-10 08:23
2019-Dec-10 08:16
2019-Dec-10 08:13
2019-Dec-10 08:08 10.6
2019-Dec-10 08:02 10.6
2019-Dec-10 07:58 342 1 gusting 5 10.6
2019-Dec-10 07:54 342 1 gusting 5 10.6
2019-Dec-10 07:49 323 0 gusting 4 10.6
2019-Dec-10 07:45 10.6
2019-Dec-10 07:38 021 3 gusting 6 10.0
2019-Dec-10 07:34 313 3 gusting 2 10.0
2019-Dec-10 07:29 10.0
2019-Dec-10 07:23 10.0
2019-Dec-10 07:18 10.0
2019-Dec-10 07:14 10.0
2019-Dec-10 07:07 10.0
2019-Dec-10 07:03 9.4
2019-Dec-10 06:58 9.4
2019-Dec-10 06:52 9.4
2019-Dec-10 06:50 9.4
2019-Dec-10 06:43
2019-Dec-10 06:38
2019-Dec-10 06:30
2019-Dec-10 06:25
2019-Dec-10 06:19
2019-Dec-10 06:13
2019-Dec-10 06:08
2019-Dec-10 06:03
2019-Dec-10 05:58
2019-Dec-10 05:52
2019-Dec-10 05:49
2019-Dec-10 05:44
2019-Dec-10 05:38
2019-Dec-10 05:33
2019-Dec-10 05:28
2019-Dec-10 05:23
2019-Dec-10 05:18
2019-Dec-10 05:14
2019-Dec-10 05:08
2019-Dec-10 05:02
2019-Dec-10 04:59
2019-Dec-10 04:55
2019-Dec-10 04:49
2019-Dec-10 04:43
2019-Dec-10 04:38
2019-Dec-10 04:32
2019-Dec-10 04:30
2019-Dec-10 04:22
2019-Dec-10 04:16
2019-Dec-10 04:11
2019-Dec-10 04:06
2019-Dec-10 04:00
2019-Dec-10 03:54
2019-Dec-10 03:49
2019-Dec-10 03:43
2019-Dec-10 03:38
2019-Dec-10 03:32
2019-Dec-10 03:27
2019-Dec-10 03:24
2019-Dec-10 03:08
2019-Dec-10 03:00
2019-Dec-10 02:58
2019-Dec-10 02:52
2019-Dec-10 02:49
2019-Dec-10 02:44
2019-Dec-10 02:38
2019-Dec-10 02:32
2019-Dec-10 02:29
2019-Dec-10 02:24
2019-Dec-10 02:18
2019-Dec-10 02:13
2019-Dec-10 02:08
2019-Dec-10 02:02
2019-Dec-10 01:59
2019-Dec-10 01:54
2019-Dec-10 01:48
2019-Dec-10 01:43
2019-Dec-10 01:37
2019-Dec-10 01:34
2019-Dec-10 01:29
2019-Dec-10 01:13
2019-Dec-10 01:08
2019-Dec-10 01:00
2019-Dec-10 00:54
2019-Dec-10 00:48
2019-Dec-10 00:43
2019-Dec-10 00:37
2019-Dec-10 00:35
2019-Dec-10 00:29
2019-Dec-10 00:24
2019-Dec-10 00:18
2019-Dec-10 00:14
2019-Dec-10 00:08
2019-Dec-10 00:02
2019-Dec-10 00:00
2019-Dec-09 23:54
2019-Dec-09 23:48
2019-Dec-09 23:43
2019-Dec-09 23:37
2019-Dec-09 23:35
2019-Dec-09 23:29
2019-Dec-09 23:23
2019-Dec-09 23:18
2019-Dec-09 23:13
2019-Dec-09 23:07
2019-Dec-09 23:03
2019-Dec-09 22:58
2019-Dec-09 22:52
2019-Dec-09 22:47
2019-Dec-09 22:43
2019-Dec-09 22:38
2019-Dec-09 22:32
2019-Dec-09 22:29
2019-Dec-09 22:24
2019-Dec-09 22:18
2019-Dec-09 22:13
2019-Dec-09 22:07
2019-Dec-09 22:04
2019-Dec-09 21:58
2019-Dec-09 21:53
2019-Dec-09 21:47
2019-Dec-09 21:40
2019-Dec-09 21:34
2019-Dec-09 21:29
2019-Dec-09 21:24
2019-Dec-09 21:18
2019-Dec-09 21:13
2019-Dec-09 21:07
2019-Dec-09 21:04
2019-Dec-09 20:59
2019-Dec-09 20:53
2019-Dec-09 20:47
2019-Dec-09 20:43
2019-Dec-09 20:37
2019-Dec-09 20:35
2019-Dec-09 20:29
2019-Dec-09 20:23
2019-Dec-09 20:16
2019-Dec-09 20:10
2019-Dec-09 20:05